Location: Stilling
(56.0622°N, 9.9882°E)
Time: 00:00:09
(UTC+00:00)

Cosmos 1766 Rocket - Pass Details

Date: 13 July 2020
Orbit: 606 x 632 km, 82.5° (Epoch: 03 August)

Event Time Altitude Azimuth Distance (km) Brightness Sun altitude
Exits shadow 21:46:46 10° 181° (S) 1,969 5.6 -9.5°
Maximum altitude 21:51:06 69° 98° (E) 674 3.6 -9.7°
Drops below altitude 10° 21:55:32 10° 16° (NNE) 2,019 7.1 -10.0°
Sets 21:57:48 0° 14° (NNE) 2,935 8.0 -10.1°
